This is the latest recevied weather packets stored in our database for station/object W4ZHA. If no packets are shown the sender has not sent any weather packets the latest 10 day(s).
| Time | Temp. | Humidity | Pressure | Rain* | Wind** | Luminosity | Snow |
|---|---|---|---|---|---|---|---|
| 1787644686 | 18.33° C | 73% | 1017.6 hPa | 0 mm | - | 0 W/m² | - |
| 1787644381 | 18.33° C | 73% | 1017.6 hPa | 0 mm | - | 0 W/m² | - |
| 1787644075 | 18.89° C | 73% | 1017.6 hPa | 0 mm | - | 0 W/m² | - |
| 1787643771 | 18.89° C | 72% | 1017.9 hPa | 0 mm | - | 0 W/m² | - |
| 1787643467 | 18.89° C | 72% | 1017.6 hPa | 0 mm | - | 0 W/m² | - |
| 1787643163 | 18.89° C | 71% | 1017.2 hPa | 0 mm | - | 0 W/m² | - |
| 1787642859 | 18.89° C | 71% | 1017.9 hPa | 0 mm | - | 0 W/m² | - |
| 1787642553 | 19.44° C | 70% | 1017.2 hPa | 0 mm | - | 0 W/m² | - |
| 1787642252 | 19.44° C | 70% | 1017.6 hPa | 0 mm | - | 0 W/m² | - |
| 1787641947 | 19.44° C | 70% | 1017.9 hPa | 0 mm | - | 0 W/m² | - |
| 1787641646 | 19.44° C | 70% | 1017.9 hPa | 0 mm | - | 0 W/m² | - |
| 1787641340 | 19.44° C | 70% | 1017.6 hPa | 0 mm | - | 0 W/m² | - |
| 1787641040 | 19.44° C | 71% | 1017.6 hPa | 0 mm | - | 0 W/m² | - |
| 1787640735 | 19.44° C | 70% | 1017.6 hPa | 0 mm | - | 0 W/m² | - |
| 1787640435 | 20° C | 70% | 1017.9 hPa | 0 mm | - | 0 W/m² | - |
| 1787640130 | 20° C | 70% | 1017.9 hPa | 0 mm | - | 0 W/m² | - |
| 1787639825 | 20° C | 69% | 1017.6 hPa | 0 mm | - | 0 W/m² | - |
| 1787639522 | 20° C | 68% | 1017.6 hPa | 0 mm | - | 0 W/m² | - |
| 1787639216 | 20.56° C | 67% | 1017.9 hPa | 0 mm | - | 0 W/m² | - |
| 1787638915 | 21.67° C | 66% | 1017.6 hPa | 0 mm | - | 0 W/m² | - |
| 1787638612 | 21.67° C | 66% | 1017.9 hPa | 0 mm | - | 0 W/m² | - |
| 1787638308 | 21.11° C | 65% | 1017.9 hPa | 0 mm | - | 0 W/m² | - |
| 1787638007 | 21.67° C | 66% | 1017.6 hPa | 0 mm | - | 0 W/m² | - |
| 1787637703 | 21.67° C | 66% | 1017.9 hPa | 0 mm | - | 0 W/m² | - |
| 1787637403 | 21.11° C | 67% | 1017.9 hPa | 0 mm | - | 0 W/m² | - |
* Rain latest hour (hover to see other rain measurements)
** Current wind speed in m/s (hover to see current wind gust speed)